Wind_Speed
12 12 12 13 13 14 14 14 14 14 14 14 14 14 14 14 13 13 12 12 12 12 13 13 13 13 12 13 12 12 12 11 11 11 11 11 12 12 12 12 12 12 12
12 12 12 13 14 14 14 14 14 14 14 14 14 13 13 13 12 12 11 11 11 11 12 13 13 13 12 13 12 11 11 11 11 11 11 11 11 11 12 12 12 12 12
12 12 12 12 13 13 13 13 14 13 13 13 13 13 13 13 13 12 12 11 11 11 12 12 12 12 12 12 12 11 11 11 11 11 12 11 11 11 11 12 12 12 12
13 13 13 13 13 13 13 14 13 13 13 13 13 13 14 13 13 13 13 12 12 12 13 13 12 12 12 12 11 11 11 11 11 12 12 12 12 12 12 12 13 13 14
13 13 14 14 14 13 14 14 14 14 13 13 13 14 14 14 14 14 14 13 14 13 13 13 12 12 12 12 11 11 12 12 12 11 12 13 13 13 13 13 13 13 14
14 14 15 15 15 15 15 14 14 15 14 14 14 14 14 14 14 14 14 14 13 13 13 13 13 12 12 12 12 12 12 13 13 13 13 13 13 13 14 14 14 14 14
15 16 16 16 16 15 15 14 14 15 15 14 14 14 15 14 14 14 15 15 14 14 14 13 13 12 12 12 13 13 13 13 13 14 14 14 14 14 14 14 14 14 14
17 16 17 17 17 17 17 16 15 16 15 15 15 15 15 15 15 15 15 16 16 15 15 14 14 13 13 13 13 13 14 14 14 15 15 15 15 15 14 14 14 14 14
18 17 17 18 17 17 17 17 16 16 15 15 15 15 15 15 15 15 16 16 17 17 16 15 14 14 13 13 13 14 14 15 16 16 15 15 15 15 15 15 15 15 14
19 18 18 18 19 18 17 17 16 15 15 15 15 15 15 16 16 16 17 17 17 17 16 16 15 14 14 14 15 15 16 16 17 17 17 16 16 16 16 16 16 16 16
19 19 19 19 19 19 18 17 16 16 16 16 16 16 17 17 18 17 18 17 18 17 16 16 16 16 16 16 16 17 17 17 17 18 17 16 16 16 17 17 17 17 17
20 20 19 19 19 19 18 18 17 17 17 17 17 18 18 18 18 18 18 18 18 17 17 17 17 17 16 16 17 18 18 17 17 17 17 16 16 17 18 18 17 17 17
20 20 20 19 19 18 18 19 18 18 18 18 18 18 18 19 18 18 18 18 17 17 17 17 17 17 18 18 18 18 18 18 18 18 17 17 17 17 17 17 17 17 17
21 20 20 19 19 19 19 19 19 19 18 18 18 18 19 18 18 18 18 17 17 17 18 18 19 19 19 20 20 19 18 18 18 19 19 18 18 17 17 17 17 17 17
21 20 20 20 20 20 20 20 21 21 20 19 19 19 19 19 19 18 18 17 17 17 17 18 19 20 19 20 20 19 20 20 20 19 19 18 18 18 17 18 18 18 18
20 20 20 21 21 21 21 22 22 22 22 21 20 19 19 19 19 19 19 19 19 19 18 19 20 20 20 20 20 21 21 20 20 19 19 19 19 19 18 18 18 18 18
20 21 21 21 22 22 22 22 22 22 21 20 20 20 20 20 19 20 20 20 20 20 20 20 20 20 20 20 21 21 21 21 20 20 20 20 20 20 19 19 19 18 18
21 22 22 23 23 23 23 23 22 22 21 21 21 21 20 20 20 21 21 21 22 22 22 21 21 21 21 21 22 22 22 22 22 22 22 21 21 20 19 19 19 19 19
22 22 23 23 23 23 23 23 22 23 22 22 21 21 22 22 22 22 22 23 23 23 23 22 22 22 22 22 22 23 23 22 23 23 23 22 22 21 21 21 21 20 20
23 23 23 23 23 23 23 23 23 23 23 23 23 22 23 23 23 23 23 23 23 23 23 23 23 23 24 23 23 22 22 22 23 23 23 23 23 23 23 22 22 22 22
25 24 24 23 23 23 23 24 23 23 23 23 23 23 23 22 23 23 23 23 23 24 24 24 24 25 25 24 24 24 23 24 23 23 23 23 23 23 23 23 23 23 23
25 24 24 24 23 23 23 23 23 23 23 23 23 22 23 23 23 24 24 24 24 25 25 25 25 25 24 24 24 25 25 24 24 24 25 25 25 24 24 24 24 24 24
25 25 24 24 24 23 23 23 23 23 23 23 23 23 23 23 24 24 24 24 24 24 24 25 25 24 24 25 25 25 26 26 26 26 27 27 26 26 26 26 26 26 26
25 25 25 25 25 24 24 23 23 23 22 22 23 23 23 24 24 24 24 24 24 24 24 24 24 24 24 25 25 25 25 26 26 27 28 28 27 27 27 27 26 26 26
26 26 26 26 25 25 24 24 23 23 23 23 23 23 24 24 24 24 24 24 24 23 23 23 23 23 24 24 25 25 25 26 26 27 28 28 28 28 28 27 27 28 28
26 26 26 26 26 25 25 24 23 23 23 24 25 25 25 25 25 25 24 23 23 23 24 24 24 24 24 24 25 25 25 26 27 27 27 27 27 28 28 28 29 29 30
Wind_Direction
299 295 290 288 287 284 281 279 279 280 280 279 278 278 280 279 276 273 270 271 272 273 275 279 281 282 283 286 286 284 285 284 281 278 281 282 282 281 281 282 282 283 283
305 300 294 289 287 284 282 283 283 282 281 279 279 281 280 278 276 276 275 275 272 275 279 281 282 281 283 286 285 280 281 282 279 278 281 283 283 282 280 280 281 282 284
301 300 299 295 289 284 284 283 282 280 279 278 278 278 279 278 279 280 278 276 274 277 280 282 284 283 282 285 284 281 281 281 280 279 279 281 281 282 284 283 282 281 283
305 302 300 297 291 286 284 281 280 277 276 278 280 280 278 278 279 278 274 272 272 274 278 279 280 281 284 284 281 280 280 281 280 280 280 281 283 285 288 285 284 283 283
306 302 299 295 292 287 283 280 279 279 278 279 279 280 280 279 277 273 273 273 271 273 275 276 278 279 282 281 279 279 277 280 281 282 281 281 284 286 288 287 284 283 283
303 299 297 293 291 288 281 277 277 277 277 278 278 279 278 277 277 273 271 271 270 273 276 275 277 280 282 280 275 276 275 277 279 280 280 282 285 285 288 286 286 285 285
303 299 296 292 291 288 283 277 275 276 275 276 276 276 276 275 276 274 270 269 269 273 274 275 276 279 281 280 276 275 276 276 279 280 282 284 287 288 288 286 285 285 284
304 301 296 292 290 286 282 279 276 275 275 274 275 276 275 274 272 272 270 268 269 271 274 275 272 273 276 277 276 276 276 275 280 282 282 283 286 288 288 286 285 284 283
303 300 296 292 289 286 282 276 274 275 274 273 275 275 272 271 271 271 268 269 269 271 274 273 269 269 273 276 276 278 277 275 279 282 282 282 282 284 285 285 283 284 285
301 300 296 291 289 286 282 276 275 274 273 274 275 274 273 271 271 271 271 270 269 269 270 267 267 269 272 275 277 278 278 277 280 281 280 281 282 283 283 283 283 283 284
299 299 296 293 291 289 284 278 275 273 272 273 273 273 273 274 274 273 272 270 268 268 267 268 269 269 271 275 276 278 279 279 280 281 280 280 283 283 283 283 283 282 283
298 298 296 293 291 287 281 277 275 273 274 274 273 272 272 273 272 273 272 269 268 267 266 269 270 270 270 273 273 274 278 279 280 282 281 281 282 283 284 282 282 282 282
297 296 294 292 290 284 278 276 275 273 274 273 273 273 272 269 269 270 268 268 267 268 268 270 270 271 270 273 276 275 276 277 279 279 280 280 281 283 284 280 279 280 282
296 294 293 291 285 281 279 276 274 275 273 272 273 274 272 268 267 267 266 266 268 270 269 269 271 272 273 274 276 276 276 277 278 278 278 278 280 281 282 281 279 278 278
297 295 294 290 285 280 277 276 274 275 274 273 273 273 271 269 267 267 267 268 270 272 270 271 273 273 275 274 273 273 275 276 278 278 277 277 278 279 280 279 278 277 277
296 295 295 293 289 284 279 276 274 273 273 272 271 270 269 268 265 266 267 269 271 272 271 272 273 274 276 276 274 274 274 274 275 276 278 276 276 277 278 278 276 276 276
295 295 294 291 289 287 285 279 275 273 272 271 269 267 267 266 266 267 269 270 270 271 271 272 272 274 275 275 276 275 274 274 274 274 274 274 275 277 277 275 275 275 276
296 295 294 292 290 289 287 284 278 275 273 271 268 267 266 267 267 268 270 270 271 271 270 271 272 273 274 273 274 275 275 275 274 272 272 272 272 273 273 272 273 273 274
298 297 295 292 290 288 286 284 280 276 275 272 269 268 268 268 268 269 269 269 271 272 271 271 273 274 275 275 275 275 275 275 273 271 270 270 271 270 272 271 271 271 271
298 298 297 294 291 288 286 283 280 277 275 272 270 268 268 268 268 269 270 269 271 272 272 272 274 276 276 275 275 275 276 275 274 273 272 271 271 270 271 272 271 270 271
297 296 295 295 293 289 285 283 280 277 276 274 271 268 267 267 269 270 272 270 270 272 273 272 273 275 275 274 274 274 273 274 274 274 273 271 271 271 271 272 271 270 270
295 294 293 293 293 290 287 283 281 279 277 274 271 270 269 269 270 271 272 273 271 272 275 275 274 274 273 273 273 272 272 272 272 272 273 272 272 273 272 271 270 270 270
293 292 290 290 290 288 286 283 282 280 277 274 272 270 270 271 271 272 272 273 273 273 274 274 273 272 272 271 272 272 272 273 273 273 273 273 273 273 271 269 268 269 271
294 292 291 290 289 287 285 283 282 281 277 275 273 271 271 271 271 271 271 272 273 273 272 272 271 271 271 271 272 272 272 273 274 275 275 274 273 273 271 271 270 270 270
295 293 291 290 288 287 286 284 282 278 276 274 274 274 274 273 271 271 271 272 272 272 271 271 271 271 273 272 272 272 272 272 275 276 276 275 273 273 272 271 270 270 271
294 294 292 290 289 287 285 283 282 279 276 274 274 274 275 274 273 270 269 270 271 271 271 271 271 273 274 274 274 274 274 274 276 278 277 276 275 274 272 270 271 271 271
Height
5863 5862 5861 5860 5859 5859 5858 5858 5858 5857 5857 5856 5856 5855 5855 5854 5854 5853 5853 5853 5853 5853 5852 5852 5852 5851 5851 5850 5849 5849 5848 5847 5846 5846 5845 5844 5844 5843 5842 5841 5841 5840 5839
5860 5859 5858 5857 5856 5855 5855 5854 5854 5854 5853 5852 5852 5852 5851 5850 5850 5850 5850 5850 5850 5849 5849 5849 5848 5848 5847 5847 5846 5845 5845 5844 5843 5843 5842 5842 5841 5840 5839 5839 5838 5837 5836
5857 5856 5855 5853 5852 5852 5851 5851 5850 5850 5849 5849 5848 5848 5848 5847 5847 5847 5847 5847 5846 5846 5846 5845 5844 5844 5844 5843 5842 5842 5841 5841 5840 5840 5840 5839 5838 5837 5837 5835 5835 5834 5833
5853 5852 5851 5849 5848 5848 5847 5847 5846 5846 5845 5845 5845 5844 5844 5844 5844 5843 5843 5843 5843 5843 5842 5841 5841 5841 5840 5839 5839 5839 5838 5838 5837 5837 5836 5836 5835 5835 5834 5833 5831 5830 5830
5850 5849 5847 5846 5845 5844 5843 5842 5842 5841 5841 5841 5841 5840 5840 5840 5840 5839 5839 5839 5839 5839 5838 5838 5837 5837 5836 5836 5836 5835 5835 5834 5834 5833 5833 5832 5832 5831 5830 5829 5829 5827 5826
5847 5845 5844 5842 5841 5840 5839 5838 5838 5837 5837 5837 5837 5836 5836 5836 5835 5835 5835 5835 5835 5835 5835 5834 5834 5833 5833 5832 5832 5831 5831 5831 5830 5830 5829 5829 5828 5827 5826 5826 5825 5824 5823
5844 5842 5840 5838 5837 5836 5835 5834 5834 5833 5833 5833 5832 5832 5832 5831 5831 5831 5831 5831 5831 5831 5831 5830 5830 5830 5829 5829 5828 5828 5827 5827 5827 5826 5826 5825 5824 5823 5822 5822 5821 5820 5819
5840 5838 5836 5834 5833 5831 5831 5830 5830 5829 5829 5828 5828 5828 5827 5827 5827 5827 5827 5827 5827 5827 5826 5826 5826 5826 5825 5825 5824 5824 5824 5823 5823 5822 5822 5821 5820 5819 5818 5818 5817 5816 5815
5835 5833 5831 5829 5827 5826 5825 5825 5825 5825 5824 5824 5824 5823 5823 5823 5822 5822 5822 5822 5822 5822 5822 5822 5822 5821 5821 5821 5820 5820 5819 5819 5819 5818 5817 5816 5816 5815 5814 5813 5812 5812 5811
5830 5828 5826 5824 5822 5821 5820 5820 5819 5819 5819 5819 5819 5819 5818 5818 5818 5817 5817 5817 5817 5817 5817 5817 5817 5817 5817 5816 5816 5816 5815 5815 5814 5813 5813 5812 5811 5810 5809 5809 5808 5807 5806
5825 5823 5820 5819 5817 5816 5815 5814 5814 5814 5814 5814 5814 5813 5813 5813 5812 5812 5812 5812 5812 5812 5812 5812 5812 5812 5812 5812 5811 5811 5810 5810 5809 5809 5808 5807 5807 5806 5805 5804 5803 5802 5801
5820 5818 5816 5814 5812 5811 5810 5809 5809 5809 5809 5809 5808 5808 5808 5807 5807 5807 5807 5807 5807 5807 5807 5807 5807 5807 5807 5807 5807 5806 5805 5805 5804 5804 5803 5802 5802 5801 5800 5799 5798 5797 5796
5815 5813 5811 5809 5807 5805 5805 5804 5804 5804 5803 5803 5803 5802 5802 5802 5802 5802 5801 5801 5801 5801 5802 5802 5802 5802 5802 5802 5801 5800 5800 5800 5799 5798 5798 5797 5797 5796 5795 5794 5793 5792 5791
5810 5808 5806 5804 5802 5801 5800 5799 5799 5798 5798 5797 5797 5797 5796 5796 5796 5796 5796 5796 5796 5796 5796 5797 5796 5796 5796 5796 5796 5795 5795 5794 5794 5793 5792 5792 5791 5790 5789 5788 5787 5787 5786
5805 5803 5801 5799 5797 5795 5795 5794 5793 5792 5792 5791 5791 5791 5791 5791 5791 5791 5791 5791 5791 5791 5791 5791 5791 5791 5790 5790 5790 5790 5789 5788 5788 5787 5786 5786 5785 5785 5784 5783 5782 5781 5781
5800 5797 5795 5793 5791 5790 5789 5788 5787 5786 5786 5785 5785 5785 5785 5785 5785 5785 5785 5785 5785 5785 5785 5785 5785 5784 5784 5784 5784 5783 5783 5782 5782 5781 5780 5780 5779 5779 5778 5777 5776 5776 5775
5794 5792 5790 5788 5785 5784 5782 5781 5780 5779 5779 5779 5779 5779 5779 5779 5779 5779 5779 5779 5779 5779 5779 5779 5779 5779 5778 5777 5777 5776 5776 5776 5775 5775 5774 5774 5773 5772 5772 5771 5771 5770 5769
5788 5786 5784 5781 5779 5777 5776 5774 5773 5773 5773 5773 5773 5773 5773 5773 5773 5773 5773 5773 5773 5773 5773 5773 5772 5772 5771 5771 5770 5770 5769 5769 5769 5768 5767 5767 5767 5766 5766 5765 5765 5764 5763
5782 5780 5777 5775 5773 5770 5769 5767 5766 5766 5766 5766 5766 5766 5766 5766 5766 5766 5766 5766 5766 5766 5766 5765 5765 5765 5765 5764 5763 5763 5762 5762 5761 5760 5760 5760 5760 5759 5759 5759 5759 5758 5757
5775 5773 5770 5768 5766 5763 5762 5760 5759 5759 5758 5759 5759 5759 5760 5759 5759 5759 5759 5759 5759 5759 5758 5758 5758 5758 5757 5756 5756 5755 5755 5754 5754 5753 5753 5752 5752 5752 5751 5751 5751 5751 5750
5768 5766 5763 5761 5759 5756 5754 5753 5752 5751 5751 5751 5751 5752 5752 5752 5752 5752 5752 5751 5751 5751 5751 5751 5751 5750 5750 5749 5748 5748 5747 5747 5746 5746 5745 5745 5744 5744 5744 5743 5744 5743 5743
5761 5759 5756 5754 5752 5749 5747 5746 5745 5744 5744 5743 5744 5744 5744 5744 5744 5744 5744 5743 5743 5743 5743 5743 5742 5742 5741 5741 5740 5740 5739 5739 5738 5738 5738 5737 5736 5736 5736 5736 5736 5735 5735
5754 5752 5749 5747 5745 5743 5741 5739 5738 5737 5736 5736 5736 5736 5736 5736 5736 5736 5735 5735 5735 5735 5735 5734 5734 5734 5733 5733 5732 5731 5731 5730 5730 5730 5729 5729 5728 5727 5727 5727 5727 5727 5727
5747 5744 5742 5740 5738 5736 5734 5732 5731 5730 5729 5729 5729 5729 5729 5728 5728 5727 5727 5727 5727 5727 5726 5726 5725 5725 5725 5724 5724 5723 5722 5722 5721 5721 5720 5720 5719 5719 5719 5718 5718 5718 5718
5739 5737 5734 5732 5731 5729 5727 5725 5724 5723 5722 5722 5721 5721 5721 5720 5720 5719 5719 5719 5719 5718 5718 5718 5717 5717 5717 5716 5715 5714 5714 5714 5713 5712 5711 5711 5710 5710 5709 5709 5709 5708 5708
5731 5729 5727 5725 5723 5721 5720 5718 5717 5715 5715 5714 5714 5713 5713 5712 5712 5711 5711 5711 5711 5710 5710 5709 5709 5708 5708 5707 5707 5706 5706 5705 5704 5703 5702 5702 5701 5700 5700 5699 5699 5699 5698